Regional Weather Roundup
Issued by NWS

Home | Current Version | Previous Version | Graphics & Text | Print | Product List | Glossary On
Versions: 1 2 3 4 5 6 7 8 9 10 11 12 13 14 15 16 17 18 19 20 21 22 23 24 25 26 27 28 29 30 31 32 33 34 35 36 37 38 39 40 41 42 43 44 45 46 47 48 49 50
000
ASUS43 KBIS 290802
RWRND

NORTH DAKOTA REGIONAL WEATHER ROUNDUP
NATIONAL WEATHER SERVICE BISMARCK ND
300 AM CDT MON AUG 29 2016

NOTE: "FAIR" INDICATES FEW OR NO CLOUDS BELOW 12,000 FEET WITH NO
SIGNIFICANT WEATHER AND/OR OBSTRUCTIONS TO VISIBILITY.


NDZ001>003-009>011-017-290900-
NORTHWEST NORTH DAKOTA

CITY           SKY/WX    TMP DP  RH WIND       PRES   REMARKS
WILLISTON      PTCLDY    60  46  59 N15       30.19R
MINOT          CLEAR     62  53  72 NW15      30.11R
MINOT AFB      CLEAR     59  52  77 N12       30.11R HAZE
$$

NDZ018>021-031>035-040>046-290900-
SOUTHWEST NORTH DAKOTA

CITY           SKY/WX    TMP DP  RH WIND       PRES   REMARKS
BISMARCK       CLOUDY    70  52  52 NW7       30.08R
DICKINSON      CLOUDY    65  49  56 N12       30.14R
GARRISON         N/A     58  54  86 N7        30.11R
HETTINGER ARPT CLEAR     67  51  56 NE16      30.13R
$$

NDZ004>008-012>016-024-026-027-054-290900-
NORTHEAST NORTH DAKOTA

CITY           SKY/WX    TMP DP  RH WIND       PRES   REMARKS
GRAND FORKS    CLOUDY    69  62  78 NE6       30.00R
GRND FRKS AFB  PTCLDY    65  62  88 SE6       30.00R
DEVILS LAKE    CLOUDY    66  63  90 N9        30.06R
$$

NDZ022-023-025-028>030-036>039-047>053-290900-
SOUTHEAST NORTH DAKOTA

CITY           SKY/WX    TMP DP  RH WIND       PRES   REMARKS
FARGO          CLOUDY    73  68  84 E7        29.99S
JAMESTOWN      CLEAR     65  62  90 NW9       30.01S
$$




USA.gov is the U.S. government's official web portal to all federal, state and local government web resources and services.